Home > Weather > Rennes > Past weeks

Flag for France Past Weather in Rennes, Brittany, France — Yesterday and Last 2 Weeks

Now
63 °F

Overcast.


Feels Like: 63 °F
Forecast: 54 / 71 °F
Wind: 3 mph from West

Location: Rennes Airport

Current Time: Jul 30, 2016 at 9:25:07 AM

Latest Report: Jul 30, 2016 at 9:00 AM


Visibility: N/A

Pressure: 29.98 "Hg

Humidity: 83%

Dew Point: 57 °F

Location of RennesLocation

Past Weather in Rennes — Graph

°F

Rennes Temperature Yesterday

Maximum temperature yesterday: 75 °F (at 5:30 PM)
Minimum temperature yesterday: 63 °F (at 6:30 AM)
Average temperature yesterday: 67 °F

High & Low Weather Summary for the Past Weeks

 TemperatureHumidityPressure
High97 °F (Jul 19, 4:00 PM)100% (Jul 15, 8:30 AM)30.39 "Hg (Jul 15, 8:30 AM)
Low52 °F (Jul 15, 8:00 AM)26% (Jul 19, 7:00 PM)29.83 "Hg (Jul 19, 7:30 PM)
Average69 °F71%30.11 "Hg
* Reported Jul 15 8:00 AM — Jul 30 8:00 AM, Rennes, Weather by CustomWeather, © 2016

Note: Actual official high and low records may vary slightly from our data, if they occured in-between our weather recording intervals... More about our weather records

Advertising

Rennes Weather History for the Previous 24 Hours

Scroll right to see more
 ConditionsComfort  
Time TempWeatherWind HumidityBarometerVisibility
8:00 AM
Sat, Jul 30
63 °FOvercast.2 mph83%29.98 "HgN/A
7:30 AM61 °FOvercast.3 mph88%29.98 "HgN/A
7:00 AM61 °FOvercast.3 mph88%29.98 "HgN/A
6:30 AM61 °FOvercast.5 mph88%29.98 "HgN/A
6:00 AM61 °FOvercast.3 mph88%29.98 "HgN/A
5:30 AM61 °FOvercast.5 mph88%29.98 "HgN/A
5:00 AM61 °FOvercast.3 mph88%29.98 "HgN/A
4:30 AM61 °FOvercast.2 mph88%29.98 "HgN/A
4:00 AM63 °FOvercast.3 mph83%29.98 "HgN/A
3:30 AM63 °FOvercast.5 mph83%29.98 "HgN/A
3:00 AM63 °FOvercast.3 mph83%29.98 "HgN/A
2:30 AM63 °FOvercast.2 mph83%29.98 "HgN/A
2:00 AM63 °FMostly cloudy.2 mph83%30.01 "HgN/A
1:30 AM63 °FOvercast.2 mph83%29.98 "HgN/A
1:00 AM63 °FMostly cloudy.No wind83%29.98 "HgN/A
12:30 AM63 °FOvercast.1 mph83%29.98 "HgN/A
12:00 AM63 °FOvercast.No wind83%29.98 "HgN/A
11:30 PM
Fri, Jul 29
63 °FOvercast.2 mph77%29.98 "HgN/A
11:00 PM64 °FPassing clouds.5 mph73%29.98 "HgN/A
10:30 PM66 °FMostly cloudy.5 mph73%29.98 "HgN/A
10:00 PM66 °FMostly cloudy.7 mph68%29.98 "HgN/A
9:30 PM66 °FPassing clouds.6 mph68%29.98 "HgN/A
9:00 PM68 °FMild.5 mph64%29.95 "HgN/A
8:30 PM72 °FBroken clouds.10 mph57%29.95 "HgN/A
8:00 PM72 °FBroken clouds.9 mph57%29.95 "HgN/A
7:30 PM72 °FOvercast.8 mph57%29.95 "HgN/A
7:00 PM72 °FPartly sunny.8 mph57%29.95 "HgN/A
6:30 PM72 °FPassing clouds.7 mph57%29.95 "HgN/A
6:00 PM73 °FPartly sunny.12 mph53%29.95 "HgN/A
5:30 PM75 °FBroken clouds.10 mph54%29.95 "HgN/A
5:00 PM73 °FPartly sunny.10 mph61%29.98 "HgN/A
4:30 PM73 °FPartly sunny.12 mph61%29.98 "HgN/A
4:00 PM72 °FPartly sunny.12 mph61%29.98 "HgN/A
3:30 PM70 °FPartly sunny.10 mph69%29.98 "HgN/A
3:00 PM70 °FPartly sunny.9 mph69%29.98 "HgN/A
2:30 PM68 °FMostly cloudy.10 mph78%30.01 "HgN/A
2:00 PM70 °FMore clouds than sun.12 mph69%29.98 "HgN/A
1:30 PM70 °FMostly cloudy.13 mph64%29.98 "HgN/A
1:00 PM72 °FPartly sunny.13 mph65%29.98 "HgN/A
12:30 PM68 °FMore clouds than sun.8 mph69%30.01 "HgN/A
12:00 PM68 °FMostly cloudy.12 mph69%30.01 "HgN/A
11:30 AM68 °FOvercast.13 mph64%30.01 "HgN/A
11:00 AM66 °FMore clouds than sun.10 mph73%30.01 "HgN/A
10:30 AM66 °FCloudy.10 mph73%30.01 "HgN/A
10:00 AM63 °FMostly cloudy.13 mph83%30.01 "HgN/A
9:30 AM64 °FMostly cloudy.9 mph83%30.01 "HgN/A
9:00 AM64 °FPartly sunny.7 mph88%30.01 "HgN/A
Weather by CustomWeather, © 2016

See weather overviewHow to use our weather pages